CPA571 ROAH-VHHH

Flight info

Callsign CPA571
Flight time 2h 8m
Altitude 40000
Route GANJU2 GANJU Y576 LILRA Y26 IGURU Q13 PICHU J7 HCN G581 ELATO V522 ABBEY ABBEY4A
Aircraft A359/H-SABDE2E3GHIJ1J2J3J4J5LM1OP2RVWXYZ/LB1D1G1

Departure

Time 2026-05-07 12:35
Airport Naha International Airport (ROAH)

Arrival

Time 2026-05-07 14:43
Airport Hong Kong International Airport (VHHH)
Time Latitude Longitude Altitude Speed Heading
2026-05-07 12:05 26.21074 127.64967 28 ft 0 kts 87°
2026-05-07 12:21 26.21073 127.64955 27 ft 3 kts 87°
2026-05-07 12:21 26.21073 127.64930 26 ft 2 kts 87°
2026-05-07 12:21 26.21072 127.64911 25 ft 3 kts 109°
2026-05-07 12:22 26.21080 127.64894 25 ft 3 kts 143°
2026-05-07 12:22 26.21097 127.64883 25 ft 3 kts 167°
2026-05-07 12:22 26.21118 127.64879 26 ft 3 kts 177°
2026-05-07 12:22 26.21141 127.64878 27 ft 3 kts 177°
2026-05-07 12:23 26.21164 127.64877 26 ft 3 kts 177°
2026-05-07 12:23 26.21187 127.64876 26 ft 3 kts 177°
2026-05-07 12:23 26.21210 127.64875 26 ft 3 kts 177°
2026-05-07 12:23 26.21229 127.64874 27 ft 3 kts 176°
2026-05-07 12:24 26.21252 127.64872 27 ft 3 kts 168°
2026-05-07 12:24 26.21274 127.64866 27 ft 3 kts 159°
2026-05-07 12:24 26.21295 127.64856 27 ft 3 kts 150°
2026-05-07 12:24 26.21305 127.64849 25 ft 0 kts 147°
2026-05-07 12:28 26.21299 127.64853 25 ft 3 kts 148°
2026-05-07 12:28 26.21266 127.64868 27 ft 8 kts 163°
2026-05-07 12:28 26.21195 127.64876 26 ft 13 kts 177°
2026-05-07 12:28 26.21096 127.64881 27 ft 16 kts 178°
2026-05-07 12:29 26.20996 127.64885 26 ft 10 kts 178°
2026-05-07 12:29 26.20928 127.64863 28 ft 11 kts 224°
2026-05-07 12:29 26.20906 127.64777 28 ft 14 kts 266°
2026-05-07 12:29 26.20903 127.64678 22 ft 10 kts 268°
2026-05-07 12:30 26.20901 127.64647 22 ft 0 kts 267°
2026-05-07 12:31 26.20901 127.64645 22 ft 1 kts 267°
2026-05-07 12:32 26.20901 127.64625 23 ft 5 kts 268°
2026-05-07 12:32 26.20899 127.64579 26 ft 7 kts 268°
2026-05-07 12:32 26.20875 127.64540 29 ft 7 kts 216°
2026-05-07 12:32 26.20837 127.64530 27 ft 5 kts 183°
2026-05-07 12:33 26.20797 127.64530 28 ft 0 kts 178°
2026-05-07 12:34 26.20794 127.64530 27 ft 3 kts 178°
2026-05-07 12:34 26.20628 127.64537 28 ft 56 kts 177°
2026-05-07 12:35 26.19984 127.64569 22 ft 127 kts 178°
2026-05-07 12:35 26.18939 127.64608 334 ft 157 kts 178°
2026-05-07 12:35 26.17864 127.64648 1128 ft 155 kts 177°
2026-05-07 12:35 26.16776 127.64729 1856 ft 159 kts 176°
2026-05-07 12:36 26.15616 127.64820 2323 ft 179 kts 178°
2026-05-07 12:36 26.14278 127.64873 2612 ft 209 kts 180°
2026-05-07 12:36 26.12716 127.64790 2909 ft 239 kts 191°
2026-05-07 12:36 26.11055 127.64300 3509 ft 253 kts 198°
2026-05-07 12:37 26.09351 127.63689 4256 ft 261 kts 199°
2026-05-07 12:37 26.07603 127.63063 5071 ft 267 kts 199°
2026-05-07 12:37 26.05823 127.62433 5939 ft 270 kts 199°
2026-05-07 12:37 26.04028 127.61804 6856 ft 271 kts 200°
2026-05-07 12:38 26.02224 127.61175 7796 ft 273 kts 200°
2026-05-07 12:38 26.00408 127.60543 8788 ft 274 kts 200°
2026-05-07 12:38 25.98579 127.59906 9787 ft 277 kts 201°
2026-05-07 12:38 25.96759 127.59150 10519 ft 285 kts 210°
2026-05-07 12:39 25.95163 127.57758 10898 ft 302 kts 230°
2026-05-07 12:39 25.93779 127.55907 11250 ft 322 kts 233°
2026-05-07 12:39 25.92351 127.53900 11611 ft 339 kts 233°
2026-05-07 12:39 25.90878 127.51854 12188 ft 347 kts 232°
2026-05-07 12:40 25.89346 127.49749 12810 ft 353 kts 232°
2026-05-07 12:40 25.87764 127.47586 13439 ft 358 kts 232°
2026-05-07 12:40 25.86203 127.45458 14017 ft 363 kts 232°
2026-05-07 12:40 25.84603 127.43277 14569 ft 366 kts 232°
2026-05-07 12:41 25.83137 127.40963 15138 ft 368 kts 241°
2026-05-07 12:41 25.82099 127.38363 15694 ft 370 kts 253°
2026-05-07 12:41 25.81605 127.35557 16277 ft 372 kts 265°
2026-05-07 12:41 25.81649 127.32678 16870 ft 376 kts 274°
2026-05-07 12:42 25.81919 127.29781 17416 ft 379 kts 275°
2026-05-07 12:42 25.82214 127.26860 17994 ft 382 kts 275°
2026-05-07 12:42 25.82505 127.23914 18529 ft 385 kts 275°
2026-05-07 12:42 25.82789 127.20944 19020 ft 388 kts 275°
2026-05-07 12:43 25.83072 127.17948 19507 ft 392 kts 275°
2026-05-07 12:43 25.83353 127.14931 20021 ft 394 kts 275°
2026-05-07 12:43 25.83634 127.11896 20538 ft 397 kts 275°
2026-05-07 12:43 25.83917 127.08830 21063 ft 400 kts 275°
2026-05-07 12:44 25.84201 127.05743 21590 ft 403 kts 275°
2026-05-07 12:44 25.84486 127.02632 22106 ft 407 kts 274°
2026-05-07 12:44 25.84772 126.99496 22634 ft 410 kts 274°
2026-05-07 12:44 25.85060 126.96340 23134 ft 413 kts 274°
2026-05-07 12:45 25.85349 126.93157 23636 ft 416 kts 274°
2026-05-07 12:45 25.85640 126.89947 24069 ft 419 kts 274°
2026-05-07 12:45 25.85931 126.86723 24542 ft 421 kts 274°
2026-05-07 12:45 25.86224 126.83476 25046 ft 423 kts 275°
2026-05-07 12:46 25.86518 126.80217 25574 ft 425 kts 275°
2026-05-07 12:46 25.86736 126.76934 26089 ft 428 kts 270°
2026-05-07 12:46 25.86561 126.73631 26610 ft 430 kts 261°
2026-05-07 12:46 25.85873 126.70399 27136 ft 433 kts 252°
2026-05-07 12:47 25.84684 126.67315 27648 ft 437 kts 244°
2026-05-07 12:47 25.83252 126.64327 28156 ft 440 kts 242°
2026-05-07 12:47 25.81754 126.61400 28651 ft 443 kts 242°
2026-05-07 12:47 25.80195 126.58434 29125 ft 447 kts 241°
2026-05-07 12:48 25.78618 126.55447 29607 ft 450 kts 241°
2026-05-07 12:48 25.77037 126.52436 30070 ft 453 kts 242°
2026-05-07 12:48 25.75454 126.49399 30451 ft 456 kts 242°
2026-05-07 12:48 25.73869 126.46340 30796 ft 459 kts 242°
2026-05-07 12:49 25.72815 126.44298 31035 ft 462 kts 242°
2026-05-07 12:49 25.71218 126.41200 31385 ft 464 kts 242°
2026-05-07 12:49 25.69611 126.38081 31740 ft 467 kts 242°
2026-05-07 12:49 25.67994 126.34944 32062 ft 470 kts 242°
2026-05-07 12:50 25.66364 126.31786 32395 ft 473 kts 242°
2026-05-07 12:50 25.64725 126.28613 32711 ft 475 kts 242°
2026-05-07 12:50 25.63074 126.25421 33036 ft 478 kts 242°
2026-05-07 12:50 25.61421 126.22227 33443 ft 477 kts 243°
2026-05-07 12:51 25.59772 126.19045 33913 ft 476 kts 243°
2026-05-07 12:51 25.58125 126.15871 34314 ft 475 kts 243°
2026-05-07 12:51 25.56475 126.12690 34655 ft 475 kts 243°
2026-05-07 12:51 25.54827 126.09516 35001 ft 475 kts 243°
2026-05-07 12:52 25.53179 126.06342 35347 ft 475 kts 243°
2026-05-07 12:52 25.51531 126.03170 35693 ft 475 kts 244°
2026-05-07 12:52 25.49902 126.00039 36039 ft 475 kts 244°
2026-05-07 12:52 25.48251 125.96867 36372 ft 475 kts 244°
2026-05-07 12:53 25.46604 125.93703 36696 ft 475 kts 244°
2026-05-07 12:53 25.44954 125.90538 37024 ft 475 kts 244°
2026-05-07 12:53 25.43302 125.87371 37351 ft 475 kts 245°
2026-05-07 12:53 25.41648 125.84205 37667 ft 475 kts 245°
2026-05-07 12:54 25.39996 125.81044 37980 ft 474 kts 245°
2026-05-07 12:54 25.38346 125.77887 38300 ft 474 kts 245°
2026-05-07 12:54 25.36693 125.74729 38610 ft 474 kts 245°
2026-05-07 12:54 25.35042 125.71575 38857 ft 474 kts 245°
2026-05-07 12:55 25.33385 125.68437 39123 ft 473 kts 245°
2026-05-07 12:55 25.31720 125.65308 39395 ft 472 kts 244°
2026-05-07 12:55 25.30053 125.62189 39657 ft 471 kts 244°
2026-05-07 12:55 25.28387 125.59074 39904 ft 470 kts 244°
2026-05-07 12:56 25.25061 125.52855 39993 ft 469 kts 244°
2026-05-07 12:56 25.21741 125.46647 39989 ft 469 kts 244°
2026-05-07 12:57 25.18422 125.40445 39990 ft 470 kts 244°
2026-05-07 12:57 25.15092 125.34229 39991 ft 470 kts 244°
2026-05-07 12:58 25.11779 125.28055 39990 ft 470 kts 244°
2026-05-07 12:58 25.08113 125.22043 39979 ft 474 kts 239°
2026-05-07 12:59 25.04181 125.16193 39976 ft 475 kts 238°
2026-05-07 12:59 25.00207 125.10374 39977 ft 475 kts 238°
2026-05-07 13:00 24.96120 125.04628 39970 ft 477 kts 235°
2026-05-07 13:00 24.91881 124.99009 39966 ft 477 kts 235°
2026-05-07 13:01 24.87639 124.93382 39984 ft 477 kts 235°
2026-05-07 13:01 24.83377 124.87774 39982 ft 479 kts 232°
2026-05-07 13:02 24.78550 124.82658 39975 ft 483 kts 227°
2026-05-07 13:02 24.73580 124.77683 39966 ft 483 kts 227°
2026-05-07 13:03 24.68587 124.72736 39963 ft 483 kts 227°
2026-05-07 13:03 24.63597 124.67781 39963 ft 483 kts 227°
2026-05-07 13:04 24.58608 124.62820 39964 ft 483 kts 227°
2026-05-07 13:04 24.53625 124.57867 39967 ft 483 kts 227°
2026-05-07 13:05 24.48639 124.52916 39973 ft 483 kts 227°
2026-05-07 13:05 24.43683 124.48000 39976 ft 483 kts 227°
2026-05-07 13:06 24.38696 124.43060 39969 ft 483 kts 227°
2026-05-07 13:06 24.33701 124.38117 39968 ft 483 kts 227°
2026-05-07 13:07 24.28706 124.33180 39970 ft 483 kts 227°
2026-05-07 13:07 24.23710 124.28247 39969 ft 483 kts 227°
2026-05-07 13:08 24.18712 124.23318 39971 ft 484 kts 227°
2026-05-07 13:08 24.13711 124.18391 39975 ft 484 kts 226°
2026-05-07 13:09 24.08708 124.13467 39976 ft 484 kts 226°
2026-05-07 13:09 24.03702 124.08547 39980 ft 484 kts 226°
2026-05-07 13:10 23.98696 124.03632 39981 ft 484 kts 226°
2026-05-07 13:10 23.94081 123.98358 39984 ft 476 kts 238°
2026-05-07 13:11 23.90248 123.92474 39980 ft 475 kts 240°
2026-05-07 13:11 23.86550 123.86496 39979 ft 475 kts 240°
2026-05-07 13:12 23.82856 123.80509 39980 ft 475 kts 240°
2026-05-07 13:12 23.79146 123.74538 39976 ft 475 kts 240°
2026-05-07 13:13 23.75417 123.68567 39973 ft 475 kts 240°
2026-05-07 13:13 23.71686 123.62602 39972 ft 476 kts 240°
2026-05-07 13:14 23.67953 123.56640 39975 ft 476 kts 240°
2026-05-07 13:14 23.64216 123.50678 39975 ft 476 kts 240°
2026-05-07 13:15 23.60475 123.44717 39975 ft 476 kts 240°
2026-05-07 13:15 23.56731 123.38757 39970 ft 476 kts 240°
2026-05-07 13:16 23.52979 123.32791 39973 ft 477 kts 240°
2026-05-07 13:16 23.49255 123.26878 39969 ft 477 kts 239°
2026-05-07 13:17 23.45498 123.20919 39971 ft 477 kts 239°
2026-05-07 13:17 23.41738 123.14961 39973 ft 477 kts 239°
2026-05-07 13:18 23.37976 123.09010 39972 ft 477 kts 239°
2026-05-07 13:18 23.34215 123.03064 39970 ft 477 kts 239°
2026-05-07 13:19 23.30408 122.97155 39972 ft 478 kts 237°
2026-05-07 13:19 23.26307 122.91505 39970 ft 479 kts 235°
2026-05-07 13:20 23.22108 122.85875 39968 ft 479 kts 235°
2026-05-07 13:20 23.17948 122.80213 39968 ft 479 kts 235°
2026-05-07 13:21 23.13817 122.74530 39972 ft 479 kts 236°
2026-05-07 13:21 23.09696 122.68852 39972 ft 479 kts 235°
2026-05-07 13:22 23.05567 122.63171 39967 ft 479 kts 235°
2026-05-07 13:22 23.01427 122.57485 39969 ft 479 kts 235°
2026-05-07 13:23 22.97313 122.51841 39968 ft 480 kts 235°
2026-05-07 13:23 22.93168 122.46161 39966 ft 480 kts 235°
2026-05-07 13:24 22.89021 122.40485 39967 ft 480 kts 235°
2026-05-07 13:24 22.84867 122.34806 39968 ft 481 kts 235°
2026-05-07 13:25 22.80708 122.29125 39966 ft 481 kts 235°
2026-05-07 13:25 22.76543 122.23444 39967 ft 481 kts 235°
2026-05-07 13:26 22.72377 122.17766 39965 ft 482 kts 235°
2026-05-07 13:26 22.68203 122.12084 39967 ft 482 kts 235°
2026-05-07 13:27 22.64025 122.06402 39964 ft 482 kts 235°
2026-05-07 13:27 22.59848 122.00728 39964 ft 482 kts 235°
2026-05-07 13:28 22.55688 121.95084 39958 ft 483 kts 235°
2026-05-07 13:28 22.51498 121.89405 39953 ft 483 kts 235°
2026-05-07 13:29 22.47307 121.83729 39948 ft 483 kts 235°
2026-05-07 13:29 22.43110 121.78053 39941 ft 483 kts 235°
2026-05-07 13:30 22.38905 121.72372 39939 ft 483 kts 235°
2026-05-07 13:30 22.34703 121.66701 39942 ft 484 kts 235°
2026-05-07 13:31 22.30499 121.61027 39938 ft 484 kts 235°
2026-05-07 13:31 22.26295 121.55357 39938 ft 484 kts 235°
2026-05-07 13:32 22.22084 121.49685 39937 ft 484 kts 235°
2026-05-07 13:32 22.17899 121.44055 39945 ft 484 kts 235°
2026-05-07 13:33 22.13683 121.38396 39947 ft 484 kts 235°
2026-05-07 13:33 22.09460 121.32739 39945 ft 484 kts 235°
2026-05-07 13:34 22.03125 121.24260 39957 ft 484 kts 235°
2026-05-07 13:35 21.99518 121.18218 39948 ft 476 kts 249°
2026-05-07 13:35 21.97605 121.11474 39951 ft 470 kts 261°
2026-05-07 13:36 21.96334 121.04567 39950 ft 470 kts 262°
2026-05-07 13:36 21.95347 120.98818 39966 ft 470 kts 262°
2026-05-07 13:37 21.94136 120.91895 39965 ft 470 kts 262°
2026-05-07 13:37 21.93167 120.84954 39945 ft 467 kts 270°
2026-05-07 13:38 21.93584 120.78020 39947 ft 463 kts 279°
2026-05-07 13:38 21.94459 120.71138 39956 ft 463 kts 280°
2026-05-07 13:39 21.95396 120.64274 39951 ft 463 kts 280°
2026-05-07 13:39 21.96315 120.57406 39964 ft 463 kts 280°
2026-05-07 13:40 21.97213 120.50533 39957 ft 463 kts 280°
2026-05-07 13:40 21.98097 120.43702 39945 ft 463 kts 280°
2026-05-07 13:41 21.98983 120.36832 39955 ft 463 kts 279°
2026-05-07 13:41 21.99856 120.30048 39957 ft 463 kts 279°
2026-05-07 13:42 22.00737 120.23181 39956 ft 463 kts 279°
2026-05-07 13:42 22.01615 120.16314 39956 ft 462 kts 279°
2026-05-07 13:43 22.02491 120.09443 39952 ft 462 kts 279°
2026-05-07 13:43 22.03362 120.02586 39949 ft 462 kts 280°
2026-05-07 13:44 22.04227 119.95729 39950 ft 462 kts 279°
2026-05-07 13:44 22.05088 119.88870 39952 ft 462 kts 279°
2026-05-07 13:45 22.05951 119.82012 39949 ft 462 kts 279°
2026-05-07 13:45 22.06812 119.75153 39955 ft 462 kts 279°
2026-05-07 13:46 22.07671 119.68292 39946 ft 461 kts 279°
2026-05-07 13:46 22.08526 119.61434 39956 ft 461 kts 279°
2026-05-07 13:47 22.09374 119.54574 39958 ft 462 kts 279°
2026-05-07 13:47 22.10220 119.47708 39951 ft 462 kts 279°
2026-05-07 13:48 22.11060 119.40876 39956 ft 462 kts 279°
2026-05-07 13:48 22.11902 119.34002 39954 ft 463 kts 279°
2026-05-07 13:49 22.12742 119.27124 39958 ft 463 kts 279°
2026-05-07 13:49 22.13579 119.20238 39952 ft 463 kts 279°
2026-05-07 13:50 22.14413 119.13357 39954 ft 463 kts 279°
2026-05-07 13:50 22.15248 119.06471 39957 ft 463 kts 279°
2026-05-07 13:51 22.16084 118.99584 39960 ft 463 kts 279°
2026-05-07 13:51 22.16914 118.92700 39958 ft 463 kts 279°
2026-05-07 13:52 22.17734 118.85815 39956 ft 462 kts 279°
2026-05-07 13:52 22.18550 118.78934 39956 ft 462 kts 279°
2026-05-07 13:53 22.19364 118.72057 39962 ft 462 kts 279°
2026-05-07 13:53 22.20176 118.65184 39956 ft 461 kts 279°
2026-05-07 13:54 22.20984 118.58318 39956 ft 461 kts 279°
2026-05-07 13:54 22.21792 118.51450 39960 ft 461 kts 279°
2026-05-07 13:55 22.22597 118.44588 39954 ft 461 kts 279°
2026-05-07 13:55 22.23393 118.37730 39956 ft 460 kts 279°
2026-05-07 13:56 22.24186 118.30880 39961 ft 460 kts 279°
2026-05-07 13:56 22.24978 118.24029 39963 ft 460 kts 279°
2026-05-07 13:57 22.25761 118.17229 39961 ft 459 kts 279°
2026-05-07 13:57 22.26546 118.10391 39961 ft 459 kts 279°
2026-05-07 13:58 22.27298 118.03558 39962 ft 458 kts 279°
2026-05-07 13:58 22.28046 117.96725 39966 ft 458 kts 279°
2026-05-07 13:59 22.28823 117.89908 39965 ft 458 kts 279°
2026-05-07 13:59 22.29605 117.83090 39953 ft 457 kts 279°
2026-05-07 14:00 22.30382 117.76275 39956 ft 457 kts 279°
2026-05-07 14:00 22.31152 117.69468 39960 ft 456 kts 279°
2026-05-07 14:01 22.31919 117.62665 39963 ft 456 kts 279°
2026-05-07 14:01 22.32682 117.55861 39966 ft 456 kts 279°
2026-05-07 14:02 22.33255 117.49041 39961 ft 457 kts 272°
2026-05-07 14:02 22.33229 117.42165 39964 ft 458 kts 272°
2026-05-07 14:03 22.33101 117.35291 39965 ft 457 kts 271°
2026-05-07 14:03 22.32960 117.28428 39960 ft 457 kts 271°
2026-05-07 14:04 22.32825 117.21564 39962 ft 457 kts 271°
2026-05-07 14:04 22.32694 117.14704 39963 ft 457 kts 271°
2026-05-07 14:05 22.32561 117.07853 39960 ft 457 kts 271°
2026-05-07 14:05 22.32425 117.00995 39963 ft 457 kts 271°
2026-05-07 14:06 22.32286 116.94128 39954 ft 457 kts 271°
2026-05-07 14:06 22.32145 116.87303 39954 ft 458 kts 271°
2026-05-07 14:07 22.32000 116.80429 39955 ft 458 kts 271°
2026-05-07 14:07 22.31851 116.73539 39961 ft 459 kts 271°
2026-05-07 14:08 22.31720 116.67554 39956 ft 459 kts 271°
2026-05-07 14:08 22.31566 116.60657 39961 ft 459 kts 271°
2026-05-07 14:09 22.31409 116.53761 39956 ft 460 kts 271°
2026-05-07 14:09 22.31248 116.46854 39954 ft 460 kts 271°
2026-05-07 14:10 22.31085 116.39943 39963 ft 460 kts 271°
2026-05-07 14:10 22.30919 116.33036 39952 ft 460 kts 271°
2026-05-07 14:11 22.30750 116.26141 39703 ft 459 kts 271°
2026-05-07 14:11 22.30664 116.22692 39463 ft 459 kts 271°
2026-05-07 14:11 22.30578 116.19242 39238 ft 459 kts 271°
2026-05-07 14:11 22.30491 116.15794 39010 ft 459 kts 271°
2026-05-07 14:12 22.30404 116.12353 38783 ft 459 kts 271°
2026-05-07 14:12 22.30316 116.08920 38272 ft 456 kts 271°
2026-05-07 14:12 22.30228 116.05502 37599 ft 455 kts 270°
2026-05-07 14:12 22.30139 116.02082 36916 ft 456 kts 270°
2026-05-07 14:13 22.30050 115.98656 36221 ft 457 kts 270°
2026-05-07 14:13 22.29960 115.95225 35511 ft 458 kts 270°
2026-05-07 14:13 22.29868 115.91775 34773 ft 461 kts 270°
2026-05-07 14:13 22.29776 115.88304 33967 ft 465 kts 270°
2026-05-07 14:14 22.29681 115.84793 33016 ft 470 kts 270°
2026-05-07 14:14 22.29585 115.81261 32145 ft 473 kts 270°
2026-05-07 14:14 22.29490 115.77703 31255 ft 475 kts 269°
2026-05-07 14:14 22.29395 115.74120 30323 ft 479 kts 269°
2026-05-07 14:15 22.29300 115.70508 29276 ft 482 kts 269°
2026-05-07 14:15 22.29206 115.66952 28507 ft 479 kts 269°
2026-05-07 14:15 22.29111 115.63370 27780 ft 475 kts 269°
2026-05-07 14:15 22.29014 115.59824 27062 ft 471 kts 269°
2026-05-07 14:16 22.28915 115.56299 26349 ft 468 kts 269°
2026-05-07 14:16 22.28816 115.52799 25632 ft 464 kts 269°
2026-05-07 14:16 22.28719 115.49331 24913 ft 461 kts 269°
2026-05-07 14:16 22.28621 115.45882 24209 ft 458 kts 269°
2026-05-07 14:17 22.28523 115.42454 23506 ft 455 kts 269°
2026-05-07 14:17 22.28426 115.39053 22706 ft 451 kts 269°
2026-05-07 14:17 22.28330 115.35691 21990 ft 445 kts 269°
2026-05-07 14:17 22.28235 115.32367 21294 ft 440 kts 269°
2026-05-07 14:18 22.28138 115.29079 20605 ft 435 kts 268°
2026-05-07 14:18 22.28037 115.25841 19909 ft 430 kts 268°
2026-05-07 14:18 22.27937 115.22631 19216 ft 426 kts 268°
2026-05-07 14:18 22.27838 115.19446 18513 ft 422 kts 268°
2026-05-07 14:19 22.27739 115.16291 17746 ft 419 kts 268°
2026-05-07 14:19 22.27640 115.13162 17007 ft 414 kts 268°
2026-05-07 14:19 22.27542 115.10070 16279 ft 409 kts 268°
2026-05-07 14:19 22.27446 115.07018 15579 ft 405 kts 268°
2026-05-07 14:20 22.27349 115.03993 14873 ft 401 kts 268°
2026-05-07 14:20 22.27286 115.02001 14403 ft 399 kts 268°
2026-05-07 14:20 22.27157 114.98016 13414 ft 395 kts 268°
2026-05-07 14:20 22.27094 114.96057 12912 ft 393 kts 268°
2026-05-07 14:21 22.26998 114.93128 12341 ft 385 kts 268°
2026-05-07 14:21 22.26880 114.89431 12156 ft 359 kts 268°
2026-05-07 14:21 22.26793 114.86806 12025 ft 342 kts 268°
2026-05-07 14:21 22.26709 114.84299 11898 ft 326 kts 268°
2026-05-07 14:22 22.26629 114.81894 11642 ft 318 kts 268°
2026-05-07 14:22 22.26528 114.80286 11335 ft 317 kts 263°
2026-05-07 14:22 22.25902 114.78002 11029 ft 322 kts 243°
2026-05-07 14:22 22.24556 114.76062 10959 ft 326 kts 226°
2026-05-07 14:23 22.22921 114.74360 10950 ft 327 kts 224°
2026-05-07 14:23 22.21284 114.72708 10854 ft 325 kts 224°
2026-05-07 14:23 22.19640 114.71040 10423 ft 323 kts 224°
2026-05-07 14:23 22.18025 114.69392 10258 ft 313 kts 224°
2026-05-07 14:24 22.16479 114.67812 10114 ft 300 kts 225°
2026-05-07 14:24 22.14993 114.66289 9967 ft 288 kts 225°
2026-05-07 14:24 22.13550 114.64810 9838 ft 286 kts 225°
2026-05-07 14:24 22.12105 114.63327 9697 ft 287 kts 225°
2026-05-07 14:25 22.10658 114.61842 9552 ft 287 kts 225°
2026-05-07 14:25 22.09214 114.60361 9437 ft 286 kts 224°
2026-05-07 14:25 22.07773 114.58884 9285 ft 286 kts 225°
2026-05-07 14:25 22.06331 114.57405 9170 ft 285 kts 224°
2026-05-07 14:26 22.04894 114.55933 9037 ft 285 kts 224°
2026-05-07 14:26 22.03457 114.54460 8906 ft 284 kts 224°
2026-05-07 14:26 22.02185 114.52840 8778 ft 283 kts 240°
2026-05-07 14:26 22.01333 114.50936 8659 ft 282 kts 248°
2026-05-07 14:27 22.00608 114.49006 8510 ft 282 kts 248°
2026-05-07 14:27 21.99877 114.47045 8393 ft 282 kts 248°
2026-05-07 14:27 21.99139 114.45088 8246 ft 281 kts 248°
2026-05-07 14:27 21.98399 114.43140 8134 ft 281 kts 248°
2026-05-07 14:28 21.97657 114.41193 8003 ft 281 kts 248°
2026-05-07 14:28 21.96915 114.39249 7875 ft 280 kts 248°
2026-05-07 14:28 21.96171 114.37306 7743 ft 280 kts 248°
2026-05-07 14:28 21.95430 114.35371 7613 ft 280 kts 248°
2026-05-07 14:29 21.94687 114.33435 7489 ft 279 kts 248°
2026-05-07 14:29 21.93946 114.31503 7359 ft 279 kts 248°
2026-05-07 14:29 21.93208 114.29580 7233 ft 278 kts 248°
2026-05-07 14:29 21.92468 114.27654 7108 ft 278 kts 248°
2026-05-07 14:30 21.91727 114.25724 6977 ft 278 kts 248°
2026-05-07 14:30 21.90988 114.23802 6852 ft 278 kts 248°
2026-05-07 14:30 21.90249 114.21879 6723 ft 278 kts 248°
2026-05-07 14:30 21.89710 114.19894 6583 ft 277 kts 264°
2026-05-07 14:31 21.89950 114.17856 6475 ft 276 kts 291°
2026-05-07 14:31 21.90802 114.16006 6336 ft 276 kts 299°
2026-05-07 14:31 21.91761 114.14214 6211 ft 276 kts 299°
2026-05-07 14:31 21.92719 114.12417 6081 ft 276 kts 299°
2026-05-07 14:32 21.93664 114.10622 5951 ft 275 kts 299°
2026-05-07 14:32 21.94604 114.08821 5824 ft 275 kts 298°
2026-05-07 14:32 21.95524 114.07049 5709 ft 275 kts 298°
2026-05-07 14:32 21.96467 114.05230 5563 ft 274 kts 298°
2026-05-07 14:33 21.97385 114.03454 5453 ft 274 kts 298°
2026-05-07 14:33 21.98312 114.01660 5319 ft 274 kts 298°
2026-05-07 14:33 21.99239 113.99865 5197 ft 274 kts 298°
2026-05-07 14:33 22.00162 113.98074 5070 ft 274 kts 298°
2026-05-07 14:34 22.01086 113.96281 4936 ft 273 kts 298°
2026-05-07 14:34 22.02009 113.94493 4814 ft 273 kts 298°
2026-05-07 14:34 22.02931 113.92702 4705 ft 273 kts 298°
2026-05-07 14:34 22.03853 113.90913 4548 ft 273 kts 298°
2026-05-07 14:35 22.04772 113.89129 4441 ft 272 kts 298°
2026-05-07 14:35 22.05692 113.87345 4311 ft 272 kts 298°
2026-05-07 14:35 22.06608 113.85565 4184 ft 272 kts 298°
2026-05-07 14:35 22.07524 113.83784 4058 ft 271 kts 298°
2026-05-07 14:36 22.08438 113.82007 3932 ft 271 kts 298°
2026-05-07 14:36 22.09351 113.80232 3809 ft 271 kts 298°
2026-05-07 14:36 22.10300 113.78481 3687 ft 271 kts 303°
2026-05-07 14:36 22.11664 113.77093 3565 ft 272 kts 328°
2026-05-07 14:37 22.13303 113.76199 3439 ft 255 kts 335°
2026-05-07 14:37 22.16307 113.74752 3169 ft 220 kts 335°
2026-05-07 14:37 22.17657 113.74094 3029 ft 206 kts 335°
2026-05-07 14:38 22.18938 113.73463 2899 ft 200 kts 334°
2026-05-07 14:38 22.20199 113.72838 2773 ft 199 kts 334°
2026-05-07 14:38 22.21451 113.72215 2695 ft 197 kts 334°
2026-05-07 14:38 22.22739 113.71703 2586 ft 199 kts 348°
2026-05-07 14:39 22.24082 113.71922 2499 ft 199 kts 29°
2026-05-07 14:39 22.25192 113.72801 2450 ft 198 kts 42°
2026-05-07 14:39 22.26224 113.73789 2416 ft 198 kts 43°
2026-05-07 14:39 22.27242 113.74767 2346 ft 198 kts 42°
2026-05-07 14:40 22.28149 113.75877 2278 ft 197 kts 58°
2026-05-07 14:40 22.28658 113.77232 2146 ft 193 kts 77°
2026-05-07 14:40 22.29029 113.78608 1852 ft 187 kts 73°
2026-05-07 14:40 22.29480 113.79876 1609 ft 175 kts 72°
2026-05-07 14:41 22.29864 113.81086 1397 ft 167 kts 73°
2026-05-07 14:41 22.30229 113.82239 1178 ft 157 kts 72°
2026-05-07 14:41 22.30580 113.83321 985 ft 149 kts 73°
2026-05-07 14:41 22.30898 113.84310 809 ft 141 kts 73°
2026-05-07 14:42 22.31210 113.85282 638 ft 134 kts 72°
2026-05-07 14:42 22.31516 113.86233 461 ft 134 kts 73°
2026-05-07 14:42 22.31819 113.87173 271 ft 131 kts 71°
2026-05-07 14:42 22.32117 113.88088 112 ft 128 kts 72°
2026-05-07 14:43 22.32405 113.88982 44 ft 117 kts 70°
2026-05-07 14:43 22.32633 113.89687 44 ft 84 kts 70°
2026-05-07 14:43 22.32790 113.90174 43 ft 54 kts 71°
2026-05-07 14:43 22.32887 113.90474 43 ft 36 kts 71°
2026-05-07 14:44 22.32940 113.90681 43 ft 25 kts 85°
2026-05-07 14:44 22.32926 113.90868 44 ft 25 kts 101°
2026-05-07 14:44 22.32898 113.91035 44 ft 17 kts 93°
2026-05-07 14:44 22.32928 113.91161 44 ft 18 kts 71°
2026-05-07 14:45 22.32971 113.91294 44 ft 19 kts 71°
2026-05-07 14:45 22.33017 113.91436 44 ft 21 kts 70°
2026-05-07 14:45 22.33069 113.91594 44 ft 23 kts 70°
2026-05-07 14:45 22.33124 113.91768 44 ft 26 kts 71°
2026-05-07 14:46 22.33176 113.91931 43 ft 20 kts 71°
2026-05-07 14:46 22.33211 113.92036 43 ft 12 kts 72°
2026-05-07 14:46 22.33180 113.92113 43 ft 13 kts 148°
2026-05-07 14:46 22.33086 113.92151 43 ft 16 kts 161°
2026-05-07 14:47 22.32973 113.92194 43 ft 19 kts 160°
2026-05-07 14:47 22.32841 113.92243 43 ft 21 kts 161°
2026-05-07 14:47 22.32692 113.92299 43 ft 24 kts 160°
2026-05-07 14:47 22.32528 113.92361 43 ft 26 kts 161°
2026-05-07 14:48 22.32383 113.92415 43 ft 15 kts 161°
2026-05-07 14:48 22.32283 113.92453 43 ft 14 kts 159°
2026-05-07 14:48 22.32251 113.92519 43 ft 10 kts 80°
2026-05-07 14:48 22.32272 113.92604 43 ft 11 kts 81°
2026-05-07 14:49 22.32231 113.92664 43 ft 12 kts 152°
2026-05-07 14:49 22.32173 113.92689 43 ft 6 kts 161°
2026-05-07 14:49 22.32168 113.92691 43 ft 0 kts 161°
2026-05-07 14:50 22.32143 113.92700 43 ft 9 kts 161°
2026-05-07 14:50 22.32063 113.92730 42 ft 14 kts 161°
2026-05-07 14:51 22.31966 113.92767 42 ft 12 kts 161°
2026-05-07 14:51 22.31895 113.92779 43 ft 10 kts 200°
2026-05-07 14:51 22.31854 113.92716 43 ft 12 kts 247°
2026-05-07 14:51 22.31823 113.92621 43 ft 15 kts 251°
2026-05-07 14:52 22.31785 113.92503 43 ft 18 kts 251°
2026-05-07 14:52 22.31745 113.92379 43 ft 17 kts 251°
2026-05-07 14:52 22.31708 113.92265 43 ft 15 kts 251°
2026-05-07 14:52 22.31675 113.92162 43 ft 14 kts 251°
2026-05-07 14:53 22.31645 113.92069 43 ft 12 kts 248°
2026-05-07 14:53 22.31590 113.92036 43 ft 8 kts 176°
2026-05-07 14:53 22.31537 113.92051 43 ft 9 kts 162°
2026-05-07 14:53 22.31467 113.92077 43 ft 12 kts 160°
2026-05-07 14:54 22.31380 113.92110 43 ft 15 kts 161°
2026-05-07 14:54 22.31276 113.92149 43 ft 17 kts 161°
2026-05-07 14:54 22.31159 113.92193 43 ft 19 kts 161°
2026-05-07 14:54 22.31030 113.92241 43 ft 21 kts 161°
2026-05-07 14:55 22.30890 113.92294 43 ft 21 kts 160°
2026-05-07 14:55 22.30793 113.92331 43 ft 12 kts 160°
2026-05-07 14:55 22.30743 113.92377 43 ft 8 kts 111°
2026-05-07 14:55 22.30749 113.92426 43 ft 7 kts 71°
2026-05-07 14:56 22.30769 113.92489 43 ft 11 kts 70°
2026-05-07 14:56 22.30799 113.92582 43 ft 15 kts 71°
2026-05-07 14:56 22.30839 113.92704 43 ft 18 kts 70°
2026-05-07 14:56 22.30878 113.92824 43 ft 16 kts 70°
2026-05-07 14:57 22.30912 113.92930 43 ft 14 kts 71°
2026-05-07 14:57 22.30942 113.93024 43 ft 12 kts 71°
2026-05-07 14:57 22.30972 113.93111 43 ft 12 kts 63°
2026-05-07 14:57 22.31031 113.93136 43 ft 8 kts 352°
2026-05-07 14:58 22.31093 113.93116 43 ft 12 kts 341°
2026-05-07 14:58 22.31175 113.93085 43 ft 13 kts 341°
2026-05-07 14:58 22.31247 113.93113 43 ft 12 kts 59°
2026-05-07 14:58 22.31275 113.93195 43 ft 11 kts 71°
2026-05-07 14:59 22.31295 113.93268 43 ft 10 kts 82°
2026-05-07 14:59 22.31322 113.93334 43 ft 9 kts 41°
2026-05-07 14:59 22.31356 113.93356 43 ft 4 kts 25°
2026-05-07 14:59 22.31372 113.93364 43 ft 1 kts 25°
2026-05-07 15:00 22.31373 113.93364 43 ft 0 kts 25°